Location: Treviso
(45.6669°N, 12.2430°E)
Time: 05:46:56
(UTC+02:00)

ISS - Pass Details

Date: 12 October 2018
Orbit: 403 x 408 km, 51.6° (Epoch: 21 October)

Event Time Altitude Azimuth Distance (km) Brightness Sun altitude
Rises 19:11:05 0° 294° (WNW) 2,338 1.3 -7.8°
Reaches altitude 10° 19:13:16 10° 285° (WNW) 1,474 0.4 -8.2°
Maximum altitude 19:16:18 34° 219° (SW) 700 -2.2 -8.7°
Drops below altitude 10° 19:19:18 10° 152° (SSE) 1,464 -1.3 -9.2°
Enters shadow 19:21:10 - 144° (SE) 2,194 -0.4 -9.5°
